Date String (YYYY-MM-DD hh:mm:ss) UTC,Instrument flags,Ambient pressure (hPa),Sample flow (lpm),Bypass flow (lpm),Sample temperature (°C),Ambient temperature (°C),ASC tube jacket temperature (°C),LED temperature (°C),Box temperature (°C),Sample RH (%),Span deviation,Mass concentration (μg/m³),Mass concentration (μg/m³),Mass concentration (μg/m³)
DateTimeUTC,F1_M11,P_M11,Q1_M11,Q2_M11,T1_M11,T2_M11,T3_M11,T4_M11,T5_M11,U1_M11,ZSPAN_M11,X2_M11,X0_M11,X1_M11
2023-02-15 16:00:00,,0821.4,4.94,0.00,23.0,23.2,00.0,31.7,24.9,07.9,0000.0,0002.32,0004.24,0001.78
2023-02-15 16:01:00,,0821.4,5.04,0.00,23.0,22.7,00.0,31.7,24.8,07.9,0000.0,0002.29,0004.11,0001.77
2023-02-15 16:02:00,,0821.4,5.02,0.00,23.0,22.1,00.0,31.8,24.7,07.9,0000.0,0002.27,0004.14,0001.77
2023-02-15 16:03:00,,0821.4,4.99,0.00,22.9,21.7,00.0,31.8,24.6,07.9,0000.0,0002.28,0004.02,0001.77
2023-02-15 16:04:00,,0821.5,5.01,0.00,22.9,21.4,00.0,31.7,24.5,07.9,0000.0,0002.30,0004.74,0001.79
2023-02-15 16:05:00,,0821.6,4.99,0.00,22.8,21.2,00.0,31.7,24.4,08.0,0000.0,0002.24,0005.08,0001.78
2023-02-15 16:06:00,,0821.7,5.01,0.00,22.8,21.0,00.0,31.7,24.3,08.0,0000.0,0002.22,0005.09,0001.78
2023-02-15 16:07:00,,0821.7,5.01,0.00,22.7,20.9,00.0,31.7,24.3,08.0,0000.0,0002.22,0005.05,0001.77
2023-02-15 16:08:00,,0821.7,4.97,0.00,22.8,21.8,00.0,31.6,24.5,07.9,0000.0,0002.18,0004.93,0001.74
2023-02-15 16:09:00,,0821.8,4.95,0.00,22.9,22.9,00.0,31.6,24.8,07.9,0000.0,0002.15,0004.75,0001.74
2023-02-15 16:10:00,,0821.8,5.03,0.00,23.0,23.2,00.0,31.7,24.9,07.9,0000.0,0002.13,0004.53,0001.73
2023-02-15 16:11:00,,0821.8,5.01,0.00,23.0,22.7,00.0,31.7,24.8,07.9,0000.0,0002.12,0004.50,0001.72
2023-02-15 16:12:00,,0821.8,5.00,0.00,23.0,22.2,00.0,31.7,24.7,07.9,0000.0,0002.10,0004.34,0001.73
2023-02-15 16:13:00,,0821.8,5.00,0.00,22.9,21.8,00.0,31.7,24.6,08.0,0000.0,0002.09,0004.79,0001.75
2023-02-15 16:14:00,,0821.8,5.01,0.00,22.9,21.5,00.0,31.7,24.5,08.0,0000.0,0002.08,0004.97,0001.76
2023-02-15 16:15:00,,0821.8,5.00,0.00,22.8,21.2,00.0,31.7,24.4,08.0,0000.0,0002.07,0004.35,0001.75
2023-02-15 16:16:00,,0821.8,5.01,0.00,22.8,20.9,00.0,31.7,24.4,08.1,0000.0,0002.09,0003.79,0001.75
2023-02-15 16:17:00,,0821.8,5.01,0.00,22.7,20.8,00.0,31.7,24.3,08.1,0000.0,0002.09,0003.73,0001.77
2023-02-15 16:18:00,,0821.8,4.99,0.00,22.7,20.7,00.0,31.7,24.3,08.1,0000.0,0002.08,0003.95,0001.77
2023-02-15 16:19:00,,0821.8,5.04,0.00,22.7,21.5,00.0,31.6,24.5,08.0,0000.0,0002.04,0004.76,0001.76
2023-02-15 16:20:00,,0821.8,5.02,0.00,22.8,22.6,00.0,31.6,24.7,07.9,0000.0,0002.01,0004.80,0001.74
2023-02-15 16:21:00,,0821.8,4.93,0.00,22.9,23.3,00.0,31.6,24.9,07.8,0000.0,0002.02,0005.26,0001.72
2023-02-15 16:22:00,,0821.8,4.97,0.00,22.9,22.7,00.0,31.7,24.8,07.8,0000.0,0002.03,0005.83,0001.72
2023-02-15 16:23:00,,0821.8,5.03,0.00,22.9,22.2,00.0,31.7,24.7,07.8,0000.0,0002.05,0006.18,0001.71
2023-02-15 16:24:00,,0821.8,5.01,0.00,22.9,21.8,00.0,31.7,24.6,07.9,0000.0,0002.06,0005.65,0001.70
2023-02-15 16:25:00,,0821.8,5.00,0.00,22.8,21.5,00.0,31.7,24.5,07.9,0000.0,0002.11,0005.50,0001.71
2023-02-15 16:26:00,,0821.8,5.01,0.00,22.8,21.3,00.0,31.7,24.4,07.9,0000.0,0002.13,0005.75,0001.71
2023-02-15 16:27:00,,0821.8,4.99,0.00,22.8,21.1,00.0,31.7,24.4,07.9,0000.0,0002.12,0005.97,0001.71
2023-02-15 16:28:00,,0821.9,5.00,0.00,22.7,20.9,00.0,31.7,24.3,07.9,0000.0,0002.12,0006.33,0001.71
2023-02-15 16:29:00,,0821.8,4.95,0.00,22.7,20.8,00.0,31.7,24.3,08.0,0000.0,0002.12,0006.34,0001.70
2023-02-15 16:30:00,,0821.9,5.02,0.00,22.7,20.9,00.0,31.6,24.3,08.0,0000.0,0002.12,0006.26,0001.71
2023-02-15 16:31:00,,0822.0,4.99,0.00,22.7,21.9,00.0,31.6,24.5,08.0,0000.0,0002.17,0005.51,0001.73
2023-02-15 16:32:00,,0822.0,4.98,0.00,22.8,23.0,00.0,31.6,24.8,07.9,0000.0,0002.26,0005.63,0001.77
2023-02-15 16:33:00,,0822.0,4.98,0.00,22.9,23.3,00.0,31.6,24.9,07.8,0000.0,0002.28,0005.30,0001.80
2023-02-15 16:34:00,,0821.9,5.00,0.00,22.9,22.7,00.0,31.7,24.8,07.8,0000.0,0002.30,0004.75,0001.82
2023-02-15 16:35:00,,0821.9,4.99,0.00,22.9,22.1,00.0,31.7,24.7,07.8,0000.0,0002.32,0004.44,0001.86
2023-02-15 16:36:00,,0822.2,5.00,0.00,22.9,21.7,00.0,31.7,24.5,07.8,0000.0,0002.43,0004.95,0001.90
2023-02-15 16:37:00,,0822.1,4.97,0.00,22.8,21.3,00.0,31.7,24.5,07.8,0000.0,0002.46,0005.25,0001.91
2023-02-15 16:38:00,,0822.0,5.01,0.00,22.8,21.1,00.0,31.7,24.4,07.8,0000.0,0002.48,0005.09,0001.93
2023-02-15 16:39:00,,0821.9,5.01,0.00,22.7,20.8,00.0,31.7,24.3,07.9,0000.0,0002.54,0005.02,0001.95
2023-02-15 16:40:00,,0822.0,4.98,0.00,22.6,20.8,00.0,31.6,24.2,07.9,0000.0,0002.60,0004.79,0001.96
2023-02-15 16:41:00,,0822.1,5.02,0.00,22.7,21.7,00.0,31.6,24.4,07.9,0000.0,0002.64,0004.82,0001.97
2023-02-15 16:42:00,,0822.1,5.04,0.00,22.8,22.8,00.0,31.6,24.7,07.9,0000.0,0002.61,0004.58,0001.97
2023-02-15 16:43:00,,0822.1,5.10,0.00,22.9,23.2,00.0,31.6,24.9,07.8,0000.0,0002.56,0004.52,0001.96
2023-02-15 16:44:00,,0822.0,5.00,0.00,22.9,22.7,00.0,31.6,24.8,07.8,0000.0,0002.58,0004.76,0001.97
2023-02-15 16:45:00,,0822.0,5.02,0.00,22.9,22.2,00.0,31.7,24.7,07.8,0000.0,0002.62,0006.00,0001.98
2023-02-15 16:46:00,,0822.0,4.99,0.00,22.9,21.7,00.0,31.7,24.6,07.8,0000.0,0002.64,0006.11,0001.98
2023-02-15 16:47:00,,0822.1,5.00,0.00,22.8,21.4,00.0,31.7,24.5,07.8,0000.0,0002.56,0005.67,0001.95
2023-02-15 16:48:00,,0822.1,5.00,0.00,22.8,21.1,00.0,31.7,24.4,07.8,0000.0,0002.51,0005.34,0001.95
2023-02-15 16:49:00,,0822.1,5.01,0.00,22.8,20.9,00.0,31.7,24.4,07.8,0000.0,0002.53,0005.31,0001.98
2023-02-15 16:50:00,,0822.1,5.01,0.00,22.7,20.9,00.0,31.7,24.3,07.9,0000.0,0002.51,0005.24,0002.00
2023-02-15 16:51:00,,0822.1,4.99,0.00,22.7,21.7,00.0,31.6,24.5,07.9,0000.0,0002.50,0005.17,0002.01
2023-02-15 16:52:00,,0822.1,5.02,0.00,22.8,22.8,00.0,31.6,24.8,07.9,0000.0,0002.49,0005.15,0002.04
2023-02-15 16:53:00,,0822.1,4.93,0.00,23.0,23.5,00.0,31.6,24.9,07.9,0000.0,0002.57,0005.43,0002.06
2023-02-15 16:54:00,,0822.1,5.04,0.00,23.0,23.0,00.0,31.7,24.9,07.8,0000.0,0002.58,0005.36,0002.08
2023-02-15 16:55:00,,0822.1,5.00,0.00,23.0,22.4,00.0,31.7,24.7,07.8,0000.0,0002.61,0005.22,0002.09
2023-02-15 16:56:00,,0822.1,5.02,0.00,22.9,22.0,00.0,31.7,24.6,07.8,0000.0,0002.59,0004.02,0002.09
2023-02-15 16:57:00,,0822.1,5.00,0.00,22.9,21.6,00.0,31.7,24.6,07.9,0000.0,0002.58,0003.94,0002.09
2023-02-15 16:58:00,,0822.2,4.99,0.00,22.8,21.3,00.0,31.7,24.5,07.9,0000.0,0002.61,0003.91,0002.11
2023-02-15 16:59:00,,0822.2,5.00,0.00,22.8,21.1,00.0,31.7,24.4,07.9,0000.0,0002.63,0003.95,0002.12
